SCP
0 0 0 0 0 0 0 0 0 0 0 0 0 0 0 0 0 0 -0 -0 -0 -0 -0 0 0 0 0 0 0 0 0 0 0 0 0 0 0 0
0 0 0 0 0 0 0 0 0 0 0 0 0 0 0 0 0 0 -0 -0 -0 -0 0 0 0 0 0 0 0 0 0 0 0 0 0 0 0 0
-0 0 0 0 0 0 0 0 0 0 0 0 0 0 0 0 0 0 -0 -0 0 0 0 0 0 0 0 0 0 0 0 0 0 0 0 0 0 0
0 0 -0 0 0 0 0 0 0 0 0 0 0 0 0 0 -0 0 0 0 0 0 0 0 0 0 0 0 0 0 0 0 0 0 0 0 0 0
0 0 -0 0 0 0 0 0 0 0 0 0 0 0 0 0 0 0 0 0 0 0 0 0 0 0 0 0 0 0 0 0 0 0 0 0 0 0
0 0 0 0 0 0 0 0 0 0 0 0 0 0 0 0 0 0 0 0 0 0 0 0 0 0 0 0 0 0 0 0 0 0 0 0 0 0
0 0 0 0 0 0 0 0 0 0 0 0 0 -0 0 0 0 0 0 0 0 0 0 0 0 0 0 0 0 0 0 0 0 0 0 0 0 0
0 0 0 0 0 0 0 0 0 -0 -0 -0 0 0 0 0 0 0 0 0 0 0 0 0 0 0 0 0 0 0 0 0 0 0 0 0 0 0
0 0 0 0 -0 0 0 0 0 0 0 0 -0 -0 0 0 0 0 0 0 0 0 0 0 0 0 0 0 0 0 0 0 0 0 0 0 0 0
0 0 0 0 0 0 0 0 0 -0 -0 -0 0 0 0 0 0 0 0 0 0 0 0 0 0 0 0 0 0 0 0 0 0 0 0 0 0 0
0 0 0 0 0 0 -0 -0 -0 -0 0 0 0 0 0 0 0 0 0 0 0 0 0 0 0 0 0 0 0 0 0 0 0 0 0 0 0 0
0 0 -0 -0 0 -0 -0 0 0 0 0 0 0 0 0 0 0 0 0 0 0 0 0 0 0 0 0 0 0 0 0 0 0 0 0 0 0 0
0 -0 -0 -0 -0 -0 0 0 0 0 0 0 0 0 0 0 0 0 0 0 0 0 0 0 0 0 0 0 0 0 0 0 0 0 0 0 0 0
0 0 0 0 0 0 0 0 0 0 0 0 0 0 0 0 0 0 0 0 0 0 0 0 0 0 0 0 0 0 0 0 0 0 0 0 0 0
0 0 0 0 0 0 0 0 0 0 0 0 0 0 0 0 0 0 0 0 0 0 0 0 0 0 0 0 0 0 0 0 0 0 0 0 0 0
-0 0 0 0 0 0 0 0 0 0 0 0 0 0 0 0 0 0 0 0 0 0 0 0 0 0 0 0 0 0 0 0 0 0 0 0 0 0
-0 0 0 0 0 0 0 0 0 0 0 0 0 0 0 0 0 0 0 0 0 0 0 0 0 0 0 0 0 0 0 0 0 0 0 0 0 0
-0 -0 -0 0 0 0 0 0 0 0 0 0 0 0 0 0 0 0 0 0 0 0 0 0 0 0 0 0 0 0 0 0 0 0 0 0 0 0
-0 0 0 0 0 0 0 0 0 0 0 0 0 0 0 0 0 0 0 0 0 0 0 0 0 0 0 0 0 0 0 0 0 0 0 0 0 0
0 0 0 0 0 0 0 0 0 0 0 0 0 0 0 0 0 0 0 0 0 0 0 0 0 0 0 0 0 0 0 0 0 0 0 0 0 0
0 0 0 0 0 0 0 0 0 0 0 0 0 0 0 0 0 0 0 0 0 0 0 0 0 0 0 0 0 0 0 0 0 0 0 0 0 0
0 0 0 0 0 0 0 0 0 0 0 0 0 0 -0 0 0 0 0 0 0 0 0 0 0 0 0 0 0 0 0 0 0 0 0 0 0 0
0 0 0 0 0 0 0 0 0 0 0 0 -0 -0 -0 0 0 0 0 0 0 0 0 0 0 0 0 0 0 0 0 0 0 0 0 0 0 0
Wind_Speed_500mb
43 55 42 33 41 61 69 68 64 44 29 31 23 29 25 27 28 26 28 28 22 15 11 9 12 13 14 15 18 21 22 23 21 20 18 17 18 21
39 38 40 49 58 70 64 58 33 27 23 37 21 31 26 23 30 25 24 22 19 15 13 13 14 16 21 23 23 24 26 25 22 20 19 20 24 28
32 28 34 56 64 66 46 35 17 22 25 27 25 35 34 28 31 24 24 23 22 18 17 19 21 24 26 27 28 30 29 26 23 22 22 25 30 33
29 25 44 39 48 32 32 22 17 18 22 33 31 34 30 27 27 26 23 19 21 21 24 27 27 32 33 34 35 34 31 29 27 26 26 31 35 37
31 33 40 32 34 28 26 23 18 17 23 31 35 30 27 28 29 29 27 26 20 29 30 36 38 40 42 41 40 37 35 34 33 32 33 36 38 40
30 31 28 28 31 33 26 26 25 25 27 24 27 27 24 30 24 22 31 34 30 39 42 45 45 48 47 46 46 44 42 41 39 39 39 41 42 43
40 35 31 29 31 30 22 25 27 25 24 22 20 20 18 21 29 25 29 27 36 42 36 46 49 52 55 54 54 51 48 45 44 43 44 46 46 46
38 35 34 31 29 25 22 22 25 28 26 22 17 15 17 21 26 31 27 32 35 40 44 45 47 48 47 54 58 55 51 51 50 50 50 50 49 45
32 29 26 26 24 23 23 21 22 21 22 19 18 21 23 31 31 37 39 38 42 33 52 47 42 55 49 49 63 63 58 59 58 56 56 53 49 45
26 25 24 23 23 22 20 18 18 19 18 19 25 25 24 29 31 36 39 43 45 45 52 54 45 53 53 49 62 66 63 65 65 65 62 56 51 48
26 26 26 25 24 22 20 17 15 14 14 15 16 19 26 31 35 37 37 36 44 44 47 61 53 48 50 55 52 68 65 66 71 72 66 60 54 50
29 28 26 27 23 20 18 14 9 8 14 20 26 32 36 40 41 45 44 41 46 50 42 57 50 44 49 51 51 51 65 66 71 76 70 63 56 50
28 26 23 19 14 10 9 9 14 21 28 34 39 43 45 46 48 49 49 51 44 51 46 57 54 50 51 61 52 46 48 54 58 66 74 70 62 51
20 17 17 13 13 17 17 20 25 31 36 38 34 31 31 31 30 33 44 50 55 64 63 67 65 61 59 64 64 54 59 50 52 59 53 54 58 56
21 21 14 17 24 27 28 30 34 38 41 37 31 30 28 30 39 50 54 59 61 63 63 66 74 79 79 79 68 60 57 57 67 60 64 62 56 43
16 14 22 28 34 36 32 29 34 37 32 29 30 30 34 39 34 32 32 35 53 63 60 56 62 61 60 67 68 75 70 71 64 79 64 61 57 47
15 18 24 27 26 23 20 20 21 22 23 22 23 24 26 28 29 31 39 36 34 44 43 38 40 51 53 54 62 64 68 72 76 68 68 51 55 53
28 22 18 16 15 12 12 14 10 14 15 18 16 18 23 34 41 35 31 31 35 38 41 43 44 46 47 54 57 67 64 66 67 64 57 50 66 73
31 24 21 21 14 12 5 5 2 8 15 13 18 24 28 25 29 38 36 35 40 42 43 42 44 45 51 58 56 48 53 54 59 58 55 73 90 72
20 15 12 10 9 9 6 7 10 13 18 23 27 31 35 25 25 28 32 35 36 40 41 41 41 37 35 53 59 55 53 58 57 65 63 65 61 53
12 14 13 13 10 15 11 12 16 22 27 33 33 26 23 22 19 24 28 31 37 35 39 38 32 39 40 44 52 60 58 59 61 62 63 63 45 32
20 16 16 16 20 18 9 14 26 24 12 13 15 18 20 22 28 31 27 30 32 34 35 37 39 40 42 49 56 61 60 68 52 36 37 42 38 33
29 29 28 13 5 9 17 15 16 17 14 16 16 22 26 28 32 32 28 29 31 36 36 41 42 42 42 49 49 53 49 41 41 38 30 30 35 43
Wind_Direction_500mb
174 192 195 188 175 173 159 164 152 148 158 171 167 172 168 175 173 165 177 173 177 183 209 240 260 265 274 285 287 294 302 299 292 290 297 304 306 307
174 182 187 182 175 172 158 158 168 168 153 167 174 173 169 166 175 172 182 183 196 214 240 262 280 282 272 274 284 299 293 283 284 294 297 302 303 306
161 166 172 172 163 159 169 168 163 158 147 157 159 173 169 160 179 181 199 200 218 232 258 279 275 268 269 279 286 286 282 281 284 286 293 299 305 306
134 148 145 143 157 168 170 172 186 175 167 157 163 170 170 174 184 194 202 209 221 247 260 265 268 269 274 275 277 280 281 281 278 281 290 294 296 297
136 141 147 155 153 163 172 186 180 162 163 169 172 174 176 184 200 209 220 223 235 262 267 267 270 272 269 271 276 279 280 276 276 279 281 286 292 292
140 140 151 159 166 172 167 171 171 158 164 169 177 180 185 202 210 224 243 249 249 267 266 264 267 267 270 273 273 274 275 273 271 273 280 285 287 288
128 134 142 152 158 161 160 158 167 157 159 166 179 189 193 226 237 241 241 248 251 252 248 263 269 272 271 271 272 273 272 270 269 273 278 281 283 284
131 136 136 137 142 147 159 175 171 178 175 181 188 209 223 244 241 234 241 241 250 261 266 256 262 265 266 273 278 275 272 269 268 270 272 275 280 283
144 145 140 151 157 168 175 180 189 196 212 219 217 235 239 239 236 250 246 247 252 262 271 263 255 263 262 257 264 278 271 268 268 266 268 272 278 281
157 160 163 163 167 164 163 174 191 205 214 224 234 239 246 248 258 262 262 263 262 257 260 264 267 264 262 260 257 275 271 266 266 264 264 269 273 276
165 160 154 146 140 142 148 160 177 195 211 230 249 260 263 266 269 266 260 259 263 267 262 268 273 270 268 263 258 265 273 266 262 261 263 265 270 275
159 155 152 150 148 150 160 175 196 241 261 267 269 271 273 274 274 273 269 260 266 273 275 263 270 277 273 272 262 258 265 269 261 256 259 263 269 269
159 156 157 161 166 184 216 245 262 273 275 274 276 277 278 278 278 275 271 266 266 270 275 273 269 273 270 274 276 272 260 265 264 256 255 257 262 265
167 182 191 203 227 243 254 265 276 283 287 285 281 278 279 280 281 281 284 290 283 279 277 267 266 269 272 275 271 274 272 265 261 262 259 267 261 265
192 208 226 253 269 280 289 292 292 292 289 283 278 280 279 272 277 300 302 297 293 287 282 281 279 280 276 275 274 273 273 266 276 258 263 258 251 253
233 262 270 275 281 287 290 290 290 287 284 279 279 277 284 300 297 295 294 292 281 289 298 305 302 300 289 290 282 272 272 272 264 266 263 259 250 251
271 271 283 290 295 289 279 275 272 281 294 298 298 304 305 306 307 301 297 308 306 307 308 304 296 295 279 278 279 280 277 276 279 266 267 251 247 264
280 274 255 253 248 253 261 268 272 308 309 314 324 325 322 322 325 326 325 321 316 315 314 313 310 305 299 291 287 292 290 285 283 281 265 249 257 263
282 252 248 239 256 270 292 263 253 301 346 0 356 355 356 347 338 324 327 327 322 323 320 320 316 310 305 298 311 305 301 293 288 281 264 258 265 266
252 240 222 217 194 224 104 85 50 52 21 15 9 8 350 340 331 323 325 323 322 319 319 323 325 309 311 312 309 307 304 299 290 284 273 262 264 266
189 203 200 199 196 160 152 94 63 27 8 345 328 337 326 326 321 323 330 328 322 323 324 323 320 309 313 306 302 303 300 299 308 308 304 292 269 267
205 186 168 151 134 124 82 326 305 301 338 12 337 339 354 346 336 340 337 330 327 324 320 316 318 318 318 316 309 305 305 310 315 319 312 286 257 273
142 136 129 115 95 77 63 60 53 64 43 27 4 1 0 354 342 341 340 329 326 322 325 325 323 322 320 321 322 317 319 328 330 328 326 316 291 287
Wind_Speed_850mb
43 55 42 33 41 61 69 68 64 44 29 31 23 29 25 27 28 26 28 28 22 15 11 9 12 13 14 15 18 21 22 23 21 20 18 17 18 21
39 38 40 49 58 70 64 58 33 27 23 37 21 31 26 23 30 25 24 22 19 15 13 13 14 16 21 23 23 24 26 25 22 20 19 20 24 28
32 28 34 56 64 66 46 35 17 22 25 27 25 35 34 28 31 24 24 23 22 18 17 19 21 24 26 27 28 30 29 26 23 22 22 25 30 33
29 25 44 39 48 32 32 22 17 18 22 33 31 34 30 27 27 26 23 19 21 21 24 27 27 32 33 34 35 34 31 29 27 26 26 31 35 37
31 33 40 32 34 28 26 23 18 17 23 31 35 30 27 28 29 29 27 26 20 29 30 36 38 40 42 41 40 37 35 34 33 32 33 36 38 40
30 31 28 28 31 33 26 26 25 25 27 24 27 27 24 30 24 22 31 34 30 39 42 45 45 48 47 46 46 44 42 41 39 39 39 41 42 43
40 35 31 29 31 30 22 25 27 25 24 22 20 20 18 21 29 25 29 27 36 42 36 46 49 52 55 54 54 51 48 45 44 43 44 46 46 46
38 35 34 31 29 25 22 22 25 28 26 22 17 15 17 21 26 31 27 32 35 40 44 45 47 48 47 54 58 55 51 51 50 50 50 50 49 45
32 29 26 26 24 23 23 21 22 21 22 19 18 21 23 31 31 37 39 38 42 33 52 47 42 55 49 49 63 63 58 59 58 56 56 53 49 45
26 25 24 23 23 22 20 18 18 19 18 19 25 25 24 29 31 36 39 43 45 45 52 54 45 53 53 49 62 66 63 65 65 65 62 56 51 48
26 26 26 25 24 22 20 17 15 14 14 15 16 19 26 31 35 37 37 36 44 44 47 61 53 48 50 55 52 68 65 66 71 72 66 60 54 50
29 28 26 27 23 20 18 14 9 8 14 20 26 32 36 40 41 45 44 41 46 50 42 57 50 44 49 51 51 51 65 66 71 76 70 63 56 50
28 26 23 19 14 10 9 9 14 21 28 34 39 43 45 46 48 49 49 51 44 51 46 57 54 50 51 61 52 46 48 54 58 66 74 70 62 51
20 17 17 13 13 17 17 20 25 31 36 38 34 31 31 31 30 33 44 50 55 64 63 67 65 61 59 64 64 54 59 50 52 59 53 54 58 56
21 21 14 17 24 27 28 30 34 38 41 37 31 30 28 30 39 50 54 59 61 63 63 66 74 79 79 79 68 60 57 57 67 60 64 62 56 43
16 14 22 28 34 36 32 29 34 37 32 29 30 30 34 39 34 32 32 35 53 63 60 56 62 61 60 67 68 75 70 71 64 79 64 61 57 47
15 18 24 27 26 23 20 20 21 22 23 22 23 24 26 28 29 31 39 36 34 44 43 38 40 51 53 54 62 64 68 72 76 68 68 51 55 53
28 22 18 16 15 12 12 14 10 14 15 18 16 18 23 34 41 35 31 31 35 38 41 43 44 46 47 54 57 67 64 66 67 64 57 50 66 73
31 24 21 21 14 12 5 5 2 8 15 13 18 24 28 25 29 38 36 35 40 42 43 42 44 45 51 58 56 48 53 54 59 58 55 73 90 72
20 15 12 10 9 9 6 7 10 13 18 23 27 31 35 25 25 28 32 35 36 40 41 41 41 37 35 53 59 55 53 58 57 65 63 65 61 53
12 14 13 13 10 15 11 12 16 22 27 33 33 26 23 22 19 24 28 31 37 35 39 38 32 39 40 44 52 60 58 59 61 62 63 63 45 32
20 16 16 16 20 18 9 14 26 24 12 13 15 18 20 22 28 31 27 30 32 34 35 37 39 40 42 49 56 61 60 68 52 36 37 42 38 33
29 29 28 13 5 9 17 15 16 17 14 16 16 22 26 28 32 32 28 29 31 36 36 41 42 42 42 49 49 53 49 41 41 38 30 30 35 43
Wind_Direction_850mb
174 192 195 188 175 173 159 164 152 148 158 171 167 172 168 175 173 165 177 173 177 183 209 240 260 265 274 285 287 294 302 299 292 290 297 304 306 307
174 182 187 182 175 172 158 158 168 168 153 167 174 173 169 166 175 172 182 183 196 214 240 262 280 282 272 274 284 299 293 283 284 294 297 302 303 306
161 166 172 172 163 159 169 168 163 158 147 157 159 173 169 160 179 181 199 200 218 232 258 279 275 268 269 279 286 286 282 281 284 286 293 299 305 306
134 148 145 143 157 168 170 172 186 175 167 157 163 170 170 174 184 194 202 209 221 247 260 265 268 269 274 275 277 280 281 281 278 281 290 294 296 297
136 141 147 155 153 163 172 186 180 162 163 169 172 174 176 184 200 209 220 223 235 262 267 267 270 272 269 271 276 279 280 276 276 279 281 286 292 292
140 140 151 159 166 172 167 171 171 158 164 169 177 180 185 202 210 224 243 249 249 267 266 264 267 267 270 273 273 274 275 273 271 273 280 285 287 288
128 134 142 152 158 161 160 158 167 157 159 166 179 189 193 226 237 241 241 248 251 252 248 263 269 272 271 271 272 273 272 270 269 273 278 281 283 284
131 136 136 137 142 147 159 175 171 178 175 181 188 209 223 244 241 234 241 241 250 261 266 256 262 265 266 273 278 275 272 269 268 270 272 275 280 283
144 145 140 151 157 168 175 180 189 196 212 219 217 235 239 239 236 250 246 247 252 262 271 263 255 263 262 257 264 278 271 268 268 266 268 272 278 281
157 160 163 163 167 164 163 174 191 205 214 224 234 239 246 248 258 262 262 263 262 257 260 264 267 264 262 260 257 275 271 266 266 264 264 269 273 276
165 160 154 146 140 142 148 160 177 195 211 230 249 260 263 266 269 266 260 259 263 267 262 268 273 270 268 263 258 265 273 266 262 261 263 265 270 275
159 155 152 150 148 150 160 175 196 241 261 267 269 271 273 274 274 273 269 260 266 273 275 263 270 277 273 272 262 258 265 269 261 256 259 263 269 269
159 156 157 161 166 184 216 245 262 273 275 274 276 277 278 278 278 275 271 266 266 270 275 273 269 273 270 274 276 272 260 265 264 256 255 257 262 265
167 182 191 203 227 243 254 265 276 283 287 285 281 278 279 280 281 281 284 290 283 279 277 267 266 269 272 275 271 274 272 265 261 262 259 267 261 265
192 208 226 253 269 280 289 292 292 292 289 283 278 280 279 272 277 300 302 297 293 287 282 281 279 280 276 275 274 273 273 266 276 258 263 258 251 253
233 262 270 275 281 287 290 290 290 287 284 279 279 277 284 300 297 295 294 292 281 289 298 305 302 300 289 290 282 272 272 272 264 266 263 259 250 251
271 271 283 290 295 289 279 275 272 281 294 298 298 304 305 306 307 301 297 308 306 307 308 304 296 295 279 278 279 280 277 276 279 266 267 251 247 264
280 274 255 253 248 253 261 268 272 308 309 314 324 325 322 322 325 326 325 321 316 315 314 313 310 305 299 291 287 292 290 285 283 281 265 249 257 263
282 252 248 239 256 270 292 263 253 301 346 0 356 355 356 347 338 324 327 327 322 323 320 320 316 310 305 298 311 305 301 293 288 281 264 258 265 266
252 240 222 217 194 224 104 85 50 52 21 15 9 8 350 340 331 323 325 323 322 319 319 323 325 309 311 312 309 307 304 299 290 284 273 262 264 266
189 203 200 199 196 160 152 94 63 27 8 345 328 337 326 326 321 323 330 328 322 323 324 323 320 309 313 306 302 303 300 299 308 308 304 292 269 267
205 186 168 151 134 124 82 326 305 301 338 12 337 339 354 346 336 340 337 330 327 324 320 316 318 318 318 316 309 305 305 310 315 319 312 286 257 273
142 136 129 115 95 77 63 60 53 64 43 27 4 1 0 354 342 341 340 329 326 322 325 325 323 322 320 321 322 317 319 328 330 328 326 316 291 287